Simultaneous Nadir Overpasses (SNOs) Predictions

Prediction of SNOs between FY3D and TERRA Satellite Orbit:

Table of predicted SNOs for the next 14.0 days since TLE Epoch: 6/3/2023
Index Date (FY3D) Time (FY3D) Lat,Lon (FY3D) SZA (FY3D ) Date (TERRA) Time (TERRA) Lat,Lon (TERRA) SZA (TERRA ) Distance(km) Time Diff (sec)
1 06/04/2023 01:42:35 -73.50, -25.75 128.98 06/04/2023 01:42:58 -73.51, -25.67 128.97 2.96 23
2 06/04/2023 02:33:19 73.39, 141.81 50.91 06/04/2023 02:32:21 73.41, 141.80 50.93 3.07 58
3 06/06/2023 13:46:43 73.48, -26.72 50.73 06/06/2023 13:46:58 73.50, -26.72 50.74 1.59 15
4 06/06/2023 14:37:27 -73.42, 140.75 129.34 06/06/2023 14:36:23 -73.41, 140.76 129.35 0.54 64
5 06/09/2023 01:00:18 74.18, 163.27 51.20 06/09/2023 01:01:24 74.08, 165.86 51.11 79.44 66
6 06/09/2023 01:50:49 -73.47, -27.68 129.53 06/09/2023 01:50:59 -73.48, -27.78 129.51 3.67 10
7 06/09/2023 02:41:34 73.41, 139.76 50.42 06/09/2023 02:40:21 73.42, 139.76 50.43 1.18 73
8 06/11/2023 13:04:20 -73.92, 162.93 129.26 06/11/2023 13:05:30 -73.84, 164.30 129.34 42.89 70
9 06/11/2023 13:54:58 73.52, -28.80 50.34 06/11/2023 13:54:57 73.51, -28.74 50.33 2.21 1
10 06/11/2023 14:45:37 -73.20, 139.24 129.99 06/11/2023 14:44:25 -73.29, 138.45 129.91 27.18 72
11 06/14/2023 01:08:21 73.59, 162.74 50.25 06/14/2023 01:09:33 73.58, 162.72 50.25 0.78 72
12 06/14/2023 01:59:05 -73.51, -29.77 129.82 06/14/2023 01:58:58 -73.52, -29.76 129.82 0.71 7
13 06/14/2023 02:49:37 72.81, 139.10 49.48 06/14/2023 02:48:31 72.86, 136.59 49.53 82.57 66
14 06/16/2023 13:12:28 -73.58, 161.76 129.86 06/16/2023 13:13:34 -73.57, 161.67 129.88 3.34 66
15 06/16/2023 14:03:13 73.53, -30.81 50.09 06/16/2023 14:02:55 73.54, -30.73 50.10 2.86 18



Historial Predications of SNOs between FY3D and TERRA
